Wind_Speed
14 17 18 19 20 22 25 27 28 29 30 31 32 33 36 38 40 42 44 45 46 47 47 48 47 45 42 41 40 40 39 38 36 33 31 31 30 29 27 25 23 22 21 18
17 20 21 23 25 26 27 27 28 30 32 34 36 39 41 43 45 47 49 49 50 50 50 49 49 47 44 42 41 40 39 37 35 33 30 29 28 27 24 22 21 20 17 15
19 21 23 26 27 27 28 29 30 33 36 38 41 44 47 48 50 53 54 54 54 53 53 52 50 48 45 43 43 41 39 37 35 32 29 27 26 24 22 19 18 16 14 11
24 24 26 28 28 29 31 33 35 38 41 44 46 49 51 54 56 58 60 59 58 57 57 56 54 52 48 45 43 41 39 37 34 31 28 26 24 22 20 18 16 15 13 11
28 30 30 31 32 34 38 40 40 42 45 48 51 53 55 58 60 62 64 64 63 63 61 60 58 56 52 49 45 42 40 38 34 31 28 25 23 21 19 17 15 14 12 10
33 35 36 37 38 40 43 45 45 46 50 54 57 60 60 62 64 65 67 68 68 68 67 65 63 60 57 52 48 44 41 38 35 32 29 25 23 21 18 16 15 14 13 11
36 38 41 42 42 44 46 48 51 54 57 60 62 65 67 69 71 73 74 75 76 75 73 70 67 64 59 55 50 46 42 38 36 33 30 26 23 21 19 16 14 13 12 11
38 41 42 44 46 48 50 52 55 58 61 64 67 70 72 74 76 78 79 77 75 73 71 69 67 65 60 57 53 49 45 40 37 34 31 28 25 22 19 17 15 13 12 10
38 41 44 46 48 50 53 56 59 63 66 69 72 74 77 78 79 77 72 67 64 63 61 60 59 58 57 55 53 50 47 42 37 34 33 30 27 24 21 18 16 14 12 11
40 42 45 48 51 54 58 61 65 69 72 75 77 79 79 77 70 62 57 53 52 51 49 47 47 48 48 49 50 50 47 43 38 36 34 32 29 26 22 19 16 15 14 13
42 45 48 51 55 59 63 67 70 72 74 76 76 72 65 55 49 45 43 43 43 44 44 42 40 40 41 44 46 47 46 43 40 38 36 35 31 28 25 21 19 17 16 15
45 49 53 57 61 65 69 71 73 73 72 68 62 55 48 43 39 39 40 42 43 44 43 40 37 35 35 39 42 43 42 42 40 38 38 37 34 30 28 24 21 20 19 18
50 55 59 64 68 71 73 74 73 69 64 56 49 46 43 39 40 41 42 43 44 44 42 38 35 32 32 33 37 39 40 40 41 38 38 38 36 33 30 27 24 22 21 20
57 62 66 70 72 74 74 71 66 58 51 46 42 40 39 40 41 42 43 45 45 44 40 37 34 30 29 31 34 36 38 41 40 39 38 38 38 35 32 29 27 25 23 22
62 66 70 73 74 72 68 63 56 48 42 39 38 38 38 40 42 44 45 47 46 44 40 36 33 29 29 29 33 35 36 39 40 38 38 39 39 37 35 32 29 27 26 23
67 71 74 75 73 68 62 55 48 42 38 37 37 38 40 43 45 47 47 48 47 44 39 35 32 29 28 29 33 34 34 36 38 38 39 39 39 38 36 32 30 28 26 24
72 75 76 74 69 63 55 48 43 39 37 38 39 41 44 47 49 49 48 47 45 42 38 34 30 27 26 28 32 35 34 35 37 39 39 39 39 38 36 33 31 28 27 25
73 74 73 68 62 56 48 43 39 37 38 40 42 45 48 50 50 50 49 47 43 39 36 33 28 25 25 27 31 35 36 36 37 37 38 38 38 38 36 34 32 30 28 25
72 70 66 60 54 49 43 39 37 37 40 42 44 47 49 50 51 51 49 45 40 35 32 30 26 23 23 26 32 36 36 36 35 35 36 36 37 37 37 35 33 31 28 25
68 64 58 53 47 42 38 36 36 38 41 43 45 48 50 50 51 49 46 41 36 32 28 24 22 21 22 27 33 37 36 36 35 35 35 35 35 35 35 34 32 31 29 27
63 57 52 47 41 36 34 35 37 39 41 44 46 49 51 51 49 47 42 37 32 27 22 18 18 19 21 27 35 38 36 35 35 34 34 35 34 34 33 31 31 30 29 27
58 52 47 43 36 31 31 34 37 40 42 44 47 49 49 49 47 43 39 34 28 21 15 12 14 18 22 29 36 38 36 35 35 34 33 32 32 31 31 30 29 29 29 27
54 48 44 38 32 29 30 33 37 39 42 45 47 48 48 47 44 40 35 29 22 13 5 7 14 19 25 33 38 38 36 35 35 34 31 30 28 28 28 28 28 28 27 26
50 45 40 35 30 28 29 32 35 39 42 44 45 46 45 43 39 35 30 24 17 9 5 10 16 23 30 37 38 37 35 35 35 33 30 27 25 24 25 26 27 26 25 24
46 42 38 32 28 27 30 32 35 38 41 42 42 41 41 39 36 31 26 20 15 11 10 14 21 28 33 37 37 36 35 34 33 31 28 24 22 21 23 25 25 24 23 22
45 41 35 30 28 28 31 33 36 39 40 41 39 38 37 35 32 28 24 20 16 14 15 20 25 29 33 35 35 34 33 33 31 29 26 23 22 23 24 23 23 22 21 20
42 38 32 27 24 25 28 32 35 38 40 40 38 35 33 30 28 26 23 21 19 18 19 21 24 28 31 32 31 31 31 31 30 28 25 23 24 24 23 22 22 21 20 19
Wind_Direction
296 293 295 296 295 294 294 295 293 296 299 303 305 304 302 301 301 301 300 300 300 300 300 300 300 301 302 304 304 306 308 309 310 307 304 301 300 301 300 299 298 301 299 290
299 298 300 298 300 302 300 300 299 300 301 303 301 299 298 298 297 296 296 296 296 296 296 296 296 297 299 300 301 302 303 305 306 304 300 298 298 300 300 298 298 301 301 290
304 301 300 301 304 303 302 300 299 297 296 295 293 293 293 294 294 294 295 296 295 295 295 294 293 294 294 295 296 298 299 300 301 299 297 294 294 296 297 297 297 300 301 293
309 308 312 311 309 307 304 301 298 296 295 294 293 293 294 295 295 295 295 295 295 293 292 291 290 290 290 290 291 292 293 294 294 293 290 288 288 289 291 292 294 298 297 291
316 315 313 310 310 308 304 300 299 297 296 295 293 293 291 291 291 292 293 292 291 290 289 288 286 285 284 283 284 284 286 287 286 285 281 281 279 281 283 285 288 294 295 288
315 313 310 307 307 304 302 301 300 296 293 291 292 292 292 291 290 290 290 289 289 288 287 284 282 280 278 277 276 276 277 279 279 276 272 271 270 270 272 275 277 284 288 285
310 307 304 305 302 300 297 296 295 294 294 294 294 295 295 295 294 294 293 292 291 289 288 285 281 277 273 270 267 266 267 270 271 266 262 260 260 259 259 261 265 272 277 275
304 302 300 300 299 298 298 297 297 297 297 297 296 296 296 296 296 296 296 295 293 292 289 286 282 276 270 265 261 258 258 261 262 258 254 251 249 248 248 249 252 259 262 258
303 302 302 303 302 302 301 300 299 299 298 298 298 298 299 299 299 299 298 297 296 295 293 289 283 276 268 261 255 252 251 252 253 250 245 242 240 238 238 238 241 242 243 240
308 307 306 306 305 304 303 303 302 302 302 302 301 301 301 301 300 299 299 300 301 301 300 295 287 276 265 256 250 246 244 243 244 242 238 234 232 229 228 228 228 228 228 225
311 311 309 307 307 306 306 305 304 303 302 302 302 302 302 302 301 302 303 305 306 305 302 299 292 281 265 254 246 242 239 235 235 236 233 227 225 222 220 220 219 218 218 215
314 313 312 311 310 310 308 307 305 305 305 305 306 306 306 305 306 308 309 309 308 306 306 300 294 285 268 253 242 238 234 229 227 227 226 222 219 217 215 215 213 211 212 212
317 317 316 315 314 312 310 310 311 311 311 311 310 309 309 308 309 310 311 311 309 306 305 301 294 288 272 255 239 233 229 224 221 220 221 217 215 212 211 210 209 208 209 212
322 321 319 318 316 315 315 315 315 315 314 312 311 310 310 310 311 312 311 311 309 307 303 298 293 287 275 254 234 224 223 221 219 217 215 213 210 208 206 206 206 206 208 212
324 322 320 319 318 318 319 319 319 318 316 314 313 313 313 313 313 313 312 310 308 305 301 295 289 283 274 253 231 220 218 218 217 214 210 209 206 204 204 204 205 205 208 212
325 324 322 321 321 322 323 323 322 321 320 319 318 317 317 316 316 315 313 311 307 303 298 292 285 278 267 247 228 218 214 213 213 210 205 205 204 202 202 203 203 205 208 212
327 326 324 324 324 325 326 325 324 323 323 323 321 320 319 318 317 315 314 312 309 303 296 288 279 270 260 241 224 215 210 210 209 205 203 202 202 202 202 201 202 204 208 212
329 326 325 326 327 327 326 326 326 326 326 325 324 323 322 320 319 318 316 313 309 303 294 284 274 263 250 233 219 209 206 205 204 203 200 200 200 200 200 200 202 204 208 211
329 327 326 327 327 327 326 327 328 329 328 327 326 326 326 324 322 321 319 315 311 304 293 281 269 256 240 222 209 202 201 200 199 197 196 198 199 199 200 202 203 205 208 212
328 327 327 327 328 328 327 328 330 331 330 330 329 329 329 328 327 325 322 318 314 305 294 277 259 243 228 211 200 194 195 195 193 192 193 196 196 197 200 203 205 207 211 214
329 329 329 329 330 330 329 331 333 334 334 334 333 333 332 332 332 330 326 323 318 309 295 270 244 226 212 200 191 187 186 186 187 189 191 193 194 197 201 205 206 208 212 217
332 331 331 332 332 332 333 334 336 336 337 337 337 336 335 335 336 335 332 329 323 313 293 252 219 204 197 187 181 179 179 180 182 183 185 188 192 197 201 202 205 208 212 217
334 334 334 334 334 336 338 338 338 339 340 340 341 341 339 339 340 340 340 339 336 329 293 202 187 184 179 174 172 172 174 176 179 180 182 185 191 197 200 201 203 205 210 214
337 337 336 336 336 337 339 340 341 342 343 344 344 344 344 345 346 349 352 355 2 19 104 151 163 165 165 165 165 168 170 173 176 178 179 182 187 193 197 198 199 200 203 209
340 340 339 337 337 339 342 344 345 346 348 349 350 350 351 352 356 3 10 16 31 61 104 136 148 153 157 159 161 164 167 170 172 175 180 184 189 192 191 188 189 193 198 203
342 341 341 339 339 342 344 346 348 349 351 353 355 356 358 2 6 15 25 38 55 78 104 126 139 147 151 153 156 159 163 167 170 174 179 182 184 182 180 181 184 188 191 193
343 341 340 337 337 340 343 346 349 351 353 355 358 0 4 10 17 28 40 52 66 85 104 120 133 140 146 150 155 158 161 165 168 171 172 173 174 174 174 176 178 181 184 188
Height
5849 5846 5843 5841 5838 5836 5832 5829 5825 5822 5819 5816 5813 5809 5804 5800 5795 5790 5785 5780 5774 5770 5765 5760 5756 5752 5749 5745 5740 5735 5730 5726 5721 5716 5711 5707 5704 5701 5697 5694 5691 5688 5686 5683
5844 5841 5838 5835 5832 5829 5826 5822 5818 5815 5811 5808 5803 5798 5793 5788 5783 5778 5773 5768 5763 5758 5753 5748 5744 5740 5737 5734 5730 5726 5721 5717 5713 5709 5705 5701 5698 5695 5692 5689 5687 5684 5681 5679
5840 5836 5833 5829 5826 5822 5818 5814 5811 5807 5804 5798 5793 5787 5782 5776 5771 5765 5760 5755 5750 5745 5740 5735 5731 5727 5725 5722 5719 5715 5712 5708 5705 5702 5698 5695 5692 5690 5688 5685 5683 5681 5679 5677
5833 5831 5827 5824 5818 5814 5809 5805 5801 5796 5791 5786 5780 5774 5768 5761 5755 5749 5743 5738 5733 5729 5725 5721 5717 5714 5711 5709 5707 5704 5702 5699 5696 5694 5691 5688 5686 5685 5683 5681 5680 5678 5677 5675
5825 5821 5819 5815 5810 5804 5799 5794 5791 5785 5779 5773 5767 5761 5755 5748 5740 5733 5727 5721 5716 5711 5707 5704 5700 5698 5696 5695 5694 5692 5690 5689 5687 5685 5683 5681 5680 5679 5678 5677 5676 5675 5674 5673
5818 5813 5809 5806 5801 5794 5789 5782 5778 5771 5765 5758 5752 5745 5741 5733 5725 5718 5710 5703 5697 5692 5687 5684 5680 5678 5678 5678 5678 5678 5678 5677 5676 5676 5675 5674 5673 5673 5672 5672 5672 5672 5671 5671
5809 5804 5798 5794 5789 5784 5779 5772 5764 5756 5749 5742 5733 5726 5719 5711 5703 5695 5688 5681 5674 5668 5664 5659 5656 5656 5656 5658 5660 5662 5663 5664 5665 5665 5665 5665 5666 5666 5666 5667 5668 5668 5668 5668
5801 5795 5791 5784 5777 5772 5765 5757 5749 5741 5732 5724 5716 5707 5698 5689 5681 5672 5664 5656 5647 5641 5637 5632 5628 5628 5631 5635 5639 5643 5646 5649 5652 5653 5655 5656 5657 5658 5660 5661 5663 5664 5664 5665
5792 5787 5779 5771 5765 5758 5750 5742 5733 5724 5715 5705 5695 5686 5676 5667 5658 5649 5639 5631 5623 5616 5612 5607 5603 5602 5605 5610 5616 5622 5628 5633 5637 5639 5643 5646 5648 5650 5653 5655 5657 5659 5660 5661
5781 5774 5768 5760 5752 5744 5735 5725 5715 5704 5693 5682 5672 5663 5653 5644 5635 5626 5619 5611 5603 5596 5590 5586 5581 5579 5581 5586 5593 5601 5608 5615 5621 5626 5631 5635 5639 5642 5646 5649 5651 5654 5656 5658
5771 5764 5757 5748 5738 5729 5718 5707 5696 5685 5673 5661 5650 5641 5632 5623 5616 5609 5603 5596 5589 5582 5575 5570 5566 5563 5563 5567 5573 5581 5590 5598 5606 5612 5618 5624 5629 5634 5638 5642 5645 5648 5651 5654
5761 5753 5744 5735 5724 5713 5701 5688 5676 5663 5652 5641 5628 5618 5612 5606 5600 5595 5589 5583 5576 5569 5562 5557 5552 5549 5549 5550 5556 5564 5573 5582 5590 5598 5605 5612 5619 5625 5630 5635 5639 5642 5646 5649
5750 5740 5730 5719 5707 5694 5680 5667 5654 5641 5628 5619 5611 5604 5597 5592 5587 5582 5576 5569 5562 5556 5550 5545 5541 5538 5536 5537 5542 5549 5558 5567 5576 5584 5593 5600 5608 5615 5622 5627 5632 5636 5640 5644
5736 5725 5714 5701 5687 5673 5659 5645 5634 5623 5613 5605 5598 5592 5587 5581 5575 5569 5563 5556 5549 5543 5538 5533 5530 5527 5525 5525 5530 5537 5545 5554 5563 5572 5581 5590 5598 5606 5613 5620 5625 5630 5635 5639
5723 5710 5697 5683 5669 5655 5641 5628 5618 5609 5601 5594 5588 5582 5576 5570 5563 5557 5549 5542 5535 5530 5525 5521 5518 5516 5515 5515 5519 5526 5535 5543 5552 5560 5570 5580 5589 5597 5605 5612 5618 5624 5629 5633
5709 5695 5680 5665 5650 5637 5625 5613 5604 5597 5590 5584 5577 5571 5565 5558 5550 5543 5535 5528 5520 5515 5511 5508 5506 5505 5504 5506 5510 5517 5525 5534 5543 5551 5561 5571 5580 5589 5597 5605 5612 5618 5623 5628
5692 5677 5662 5647 5635 5623 5612 5602 5594 5587 5581 5574 5568 5561 5553 5545 5537 5529 5521 5513 5505 5500 5496 5494 5494 5493 5494 5496 5501 5509 5517 5526 5535 5544 5553 5563 5573 5582 5590 5598 5605 5612 5617 5622
5675 5659 5644 5631 5619 5610 5602 5594 5587 5580 5573 5566 5558 5551 5542 5532 5523 5514 5506 5498 5490 5485 5481 5479 5480 5482 5484 5487 5493 5502 5511 5520 5529 5538 5547 5557 5566 5575 5584 5592 5599 5605 5611 5616
5662 5647 5634 5623 5612 5602 5594 5586 5580 5573 5566 5558 5549 5540 5531 5520 5510 5500 5491 5482 5475 5470 5467 5465 5468 5471 5474 5479 5486 5495 5505 5515 5524 5533 5543 5552 5561 5569 5578 5586 5592 5599 5605 5611
5651 5637 5625 5615 5605 5596 5588 5580 5574 5567 5559 5550 5541 5531 5520 5509 5498 5487 5477 5468 5461 5456 5454 5453 5456 5461 5465 5471 5480 5490 5501 5511 5520 5530 5539 5548 5557 5565 5573 5581 5587 5593 5600 5605
5641 5628 5617 5607 5599 5591 5583 5575 5568 5561 5552 5543 5533 5522 5510 5498 5487 5475 5465 5457 5451 5445 5443 5443 5447 5452 5459 5466 5475 5487 5498 5508 5518 5527 5537 5545 5554 5562 5569 5576 5583 5588 5594 5600
5631 5620 5609 5600 5592 5585 5578 5571 5563 5555 5547 5537 5526 5514 5502 5490 5479 5468 5457 5448 5441 5437 5435 5437 5441 5447 5454 5463 5473 5485 5496 5506 5516 5526 5535 5543 5551 5559 5566 5572 5578 5584 5589 5594
5623 5612 5602 5594 5587 5580 5574 5567 5559 5551 5542 5532 5520 5508 5496 5484 5472 5461 5452 5443 5436 5432 5432 5434 5439 5445 5452 5462 5474 5485 5496 5506 5516 5525 5534 5542 5549 5556 5562 5568 5574 5579 5585 5590
5617 5606 5597 5589 5583 5577 5571 5565 5557 5548 5539 5528 5517 5505 5493 5481 5470 5459 5450 5442 5437 5434 5434 5436 5441 5447 5455 5465 5476 5487 5497 5507 5516 5525 5533 5541 5547 5553 5559 5565 5570 5576 5581 5586
5611 5601 5593 5586 5579 5574 5568 5561 5554 5546 5537 5527 5516 5505 5493 5481 5470 5461 5453 5447 5443 5440 5440 5442 5447 5453 5461 5471 5481 5490 5500 5509 5518 5526 5533 5540 5546 5552 5557 5563 5568 5573 5578 5583
5607 5598 5590 5582 5576 5570 5565 5558 5552 5543 5534 5525 5516 5506 5496 5486 5476 5468 5461 5455 5452 5450 5450 5452 5457 5463 5470 5478 5486 5495 5503 5512 5520 5527 5534 5540 5545 5551 5557 5562 5567 5572 5577 5581
5603 5595 5588 5582 5576 5570 5564 5558 5550 5542 5533 5524 5516 5507 5499 5491 5484 5476 5471 5466 5463 5462 5463 5465 5469 5473 5479 5486 5493 5500 5508 5515 5523 5529 5535 5541 5547 5552 5557 5562 5567 5572 5576 5580